Temperature
23 22 22 22 22 21 21 22 22 23 22 23 23 22 21 19 18 18 17 16 16 15 15 14 14 13 13 12 12 12 11 11 11 11 11 11 11 11 11 11 11 11 11 11
23 22 22 22 22 21 21 21 22 22 22 23 22 21 20 20 19 18 17 17 16 16 15 15 14 14 13 13 12 12 11 11 11 11 11 11 11 11 11 11 11 11 11 11
23 22 22 23 23 22 22 22 22 22 23 23 22 22 21 20 19 18 18 17 16 16 16 15 15 14 13 13 12 12 12 11 11 11 11 11 11 11 11 11 11 11 11 11
23 23 22 24 23 23 23 23 23 23 23 22 21 21 20 19 19 19 18 17 16 16 16 15 15 14 13 13 13 12 12 11 11 11 11 11 11 11 11 11 11 11 11 11
23 23 23 23 23 22 23 23 24 23 23 22 20 20 21 20 19 18 18 17 16 16 16 15 15 14 14 13 13 12 12 12 11 11 11 11 11 11 11 11 11 11 11 11
22 22 23 24 23 22 23 23 23 23 22 22 21 23 23 20 19 18 17 17 16 16 15 15 15 14 14 14 13 13 12 12 12 11 11 11 11 11 11 11 11 11 11 11
22 23 24 23 21 21 23 24 22 22 22 21 22 23 20 19 18 18 17 17 17 16 15 15 15 14 14 14 14 13 13 12 12 12 12 11 11 11 11 11 11 11 11 11
22 22 23 21 21 23 23 21 21 21 21 20 20 19 19 18 18 18 18 17 17 16 16 15 15 15 14 14 14 13 13 13 12 12 12 12 12 11 11 11 11 11 11 11
23 23 21 18 20 19 18 19 20 20 19 19 19 19 18 18 18 18 18 17 17 16 16 15 15 15 15 14 14 14 13 13 13 12 12 12 12 11 11 11 11 11 11 11
22 22 19 18 17 16 16 17 18 18 18 18 19 18 18 18 18 18 18 17 17 17 16 16 15 15 15 15 14 14 13 13 13 13 12 12 12 12 12 11 11 11 11 11
23 22 19 17 16 15 16 16 17 17 17 18 18 18 18 18 18 18 17 17 17 17 16 16 16 15 15 15 15 14 14 13 13 13 13 13 12 12 12 12 12 11 11 11
24 22 22 19 15 15 16 16 17 17 17 17 17 17 17 17 17 17 17 17 17 17 17 16 16 15 15 15 15 14 14 14 14 13 13 13 13 12 13 12 12 12 12 12
19 17 17 15 15 15 15 15 16 16 16 17 17 17 17 17 17 17 17 17 16 16 16 16 15 15 15 15 15 15 15 14 14 14 13 13 13 13 12 12 13 12 12 12
15 15 15 14 14 14 14 15 15 15 15 16 16 16 16 16 16 16 16 16 16 15 15 15 15 15 15 15 15 15 15 14 14 14 14 14 13 13 13 12 12 12 12 12
14 14 14 13 13 14 14 13 14 14 14 14 15 15 15 15 15 15 15 15 15 15 15 14 14 14 15 15 15 15 14 14 14 14 14 14 14 13 13 13 13 13 12 12
13 12 12 12 12 12 13 13 13 13 13 13 13 14 13 13 13 14 14 14 14 13 13 13 13 13 14 14 14 14 14 14 14 14 14 14 14 14 13 13 13 13 13 13
13 12 12 12 11 11 12 12 12 12 12 12 12 12 12 12 12 12 12 12 12 12 12 12 12 12 13 13 13 13 14 14 14 14 14 14 13 13 13 13 13 13 13 13
14 13 12 12 12 11 11 10 10 10 10 11 11 11 11 11 11 10 10 10 10 11 11 11 11 11 11 12 12 12 12 13 13 13 13 13 13 13 13 13 13 13 13 13
11 11 11 10 10 10 10 9 9 9 9 9 9 9 9 9 9 9 9 9 9 10 9 10 10 10 10 10 11 11 11 11 11 12 12 12 12 12 12 13 13 13 13 13
10 10 9 9 9 9 8 8 8 8 8 8 8 8 8 8 8 8 8 8 8 7 8 8 8 9 9 9 10 10 10 10 10 10 11 11 11 11 11 12 12 12 12 12
8 8 8 8 8 7 7 7 7 8 8 8 8 7 7 7 7 7 7 7 7 7 7 7 7 7 8 8 8 8 8 8 9 9 9 9 10 10 10 10 11 11 11 12
8 7 7 7 7 7 7 7 7 7 7 7 7 6 6 6 6 6 6 6 6 6 6 6 6 6 7 7 7 7 7 7 7 7 7 8 8 8 9 9 9 10 10 11
7 7 7 7 7 6 6 6 6 6 6 6 6 6 6 6 6 5 5 5 5 5 5 5 6 6 6 6 6 6 6 6 6 6 6 6 6 7 7 8 8 8 9 9
7 7 6 6 6 6 6 6 6 6 6 6 5 5 5 5 5 5 5 5 5 5 5 5 5 5 5 5 5 5 5 5 5 5 5 5 5 6 6 6 6 7 7 7
7 6 6 6 6 6 6 5 5 5 5 5 5 5 5 5 5 5 5 5 5 5 4 4 5 5 4 4 4 4 4 4 4 4 4 4 4 4 5 5 5 5 6 6
6 6 6 6 6 6 5 5 5 5 5 5 5 5 5 5 4 4 4 4 4 4 4 4 4 4 4 4 4 4 4 4 4 3 3 3 3 4 4 4 4 4 5 5
6 6 5 5 5 5 5 5 5 5 5 5 5 4 4 4 4 4 4 4 4 4 4 4 4 4 4 3 3 3 3 3 3 3 3 3 3 3 3 3 3 3 3 4
Wind_Speed
2 1 3 5 7 10 10 8 6 7 9 11 9 6 5 4 5 6 7 7 6 6 5 4 4 4 3 4 4 4 5 5 6 7 7 8 9 9 9 8 8 8 7 7
5 4 5 7 9 10 11 9 10 12 11 6 4 4 4 4 5 7 7 7 6 6 5 4 4 3 3 3 3 4 4 5 5 6 7 7 8 9 9 8 8 8 8 7
5 4 5 8 9 11 7 8 8 7 5 4 5 5 5 4 5 7 6 6 6 6 5 4 3 3 3 3 3 3 4 4 5 5 6 7 8 8 8 8 8 8 8 8
3 5 6 2 3 5 7 6 8 9 9 7 7 6 6 5 6 6 6 6 6 6 5 4 3 2 2 2 2 3 3 4 4 5 5 6 7 7 8 7 7 7 8 8
4 5 4 3 4 5 5 3 3 5 5 4 4 5 3 2 5 5 5 5 5 5 5 4 3 3 3 2 2 3 3 3 3 4 5 5 6 7 7 7 7 7 7 7
5 5 4 4 5 4 4 4 2 3 3 2 3 2 2 2 2 4 5 5 5 5 5 5 4 4 4 3 3 3 3 3 3 3 4 5 5 6 5 5 5 5 6 6
8 6 4 3 5 5 5 2 2 1 2 3 3 3 3 1 1 3 5 5 6 6 5 5 4 5 5 4 4 3 2 3 3 3 3 4 4 4 4 4 5 5 5 5
7 7 5 6 7 6 1 2 1 2 3 3 4 4 3 2 2 3 4 5 6 6 6 5 5 6 6 5 4 3 4 4 4 4 4 3 4 4 4 4 4 4 4 4
6 2 4 3 3 1 3 4 4 4 3 3 4 3 2 2 2 3 4 5 6 6 6 6 6 7 7 6 5 5 5 5 5 5 4 4 4 4 4 3 4 4 4 4
5 5 4 3 2 2 3 5 5 4 3 3 2 2 1 1 1 2 3 4 5 6 7 7 7 7 8 6 6 7 7 7 6 6 5 4 4 4 4 4 3 3 4 3
7 5 6 5 3 1 1 1 1 0 0 0 1 1 2 1 1 1 1 2 3 5 6 7 6 7 7 7 7 8 8 8 7 6 6 6 5 5 5 4 4 5 4 4
7 8 7 7 5 1 1 1 2 2 3 3 2 2 2 2 2 2 2 2 2 3 5 6 6 6 6 6 8 9 8 8 7 6 6 6 6 6 8 8 6 7 8 7
3 5 4 6 5 3 3 3 4 5 5 5 5 4 4 3 3 3 3 3 3 3 4 5 5 5 5 5 7 9 10 9 7 7 7 7 7 7 7 8 12 11 11 11
7 7 7 7 5 5 5 5 6 7 7 7 6 6 5 5 5 5 5 5 4 4 4 5 5 6 7 6 7 9 10 9 9 8 8 8 8 8 8 8 7 7 10 13
10 7 7 8 8 7 7 7 7 7 8 8 8 8 7 7 7 7 7 6 5 5 6 6 6 8 8 7 7 8 8 8 8 8 8 9 9 9 9 9 9 8 7 8
12 10 11 11 10 9 8 8 8 8 7 7 8 8 8 8 8 8 8 8 8 8 8 8 9 10 10 9 8 7 7 9 9 9 9 9 9 10 10 10 10 10 9 9
17 15 14 13 12 10 9 8 8 7 7 7 7 7 7 8 9 9 9 9 8 9 10 11 11 12 11 10 9 7 7 7 7 9 9 10 10 10 10 10 10 10 10 10
13 13 14 14 13 12 10 9 8 8 7 7 7 7 8 9 9 9 9 9 9 10 12 13 13 13 12 12 10 8 8 8 7 7 8 9 10 10 11 11 12 13 11 10
14 14 14 13 12 11 10 9 8 7 7 6 7 8 8 8 8 8 8 10 11 11 12 14 15 13 13 14 13 8 8 9 8 8 8 9 9 10 11 11 12 12 12 11
16 16 15 13 12 11 10 9 8 7 6 6 6 7 8 8 7 7 8 9 9 9 11 13 13 13 14 14 14 9 10 9 9 9 8 9 9 10 10 11 12 12 12 12
17 16 15 13 12 10 9 8 7 7 6 6 6 6 6 6 7 7 7 7 9 11 11 11 11 12 13 14 12 10 10 10 10 10 10 9 10 10 10 11 11 12 12 12
15 14 13 12 11 10 8 7 7 6 6 5 5 5 4 5 6 6 7 6 7 10 9 9 10 14 16 14 10 11 11 11 11 10 10 10 10 11 11 11 11 11 12 12
13 13 12 11 10 9 8 6 6 5 5 4 4 3 3 3 3 4 5 6 7 10 8 8 12 16 17 11 10 11 12 12 12 11 11 11 11 11 11 12 11 11 12 12
12 12 11 10 9 9 8 7 5 4 4 3 2 1 1 1 2 2 3 4 7 9 7 9 12 15 14 9 10 11 11 11 12 12 12 12 12 12 12 12 12 12 12 14
12 11 11 10 9 7 7 7 6 5 4 3 3 2 2 1 2 3 4 6 7 8 8 9 11 12 10 9 10 11 11 11 11 12 11 12 12 12 12 12 12 13 12 12
11 9 8 8 7 6 6 6 5 5 4 4 3 2 2 2 3 4 4 6 7 8 8 8 9 9 9 10 10 11 11 11 11 11 12 12 13 13 12 13 16 13 13 12
9 8 7 6 6 6 6 6 5 5 5 4 4 3 3 4 4 5 6 6 7 7 7 8 8 9 9 9 10 10 11 11 11 11 11 11 11 12 12 14 13 13 13 13
Wind_Direction
233 178 211 224 209 205 223 249 267 285 291 300 315 314 303 265 232 224 226 230 237 248 267 279 288 294 305 319 328 332 333 339 345 347 350 352 355 356 358 356 356 359 2 1
209 206 228 241 231 221 231 247 257 276 287 293 304 287 275 253 228 227 228 229 232 239 253 268 281 293 301 310 322 327 333 341 346 344 352 354 357 359 0 0 1 6 5 4
217 189 233 245 226 211 217 224 243 268 294 317 295 291 284 271 237 235 231 226 228 232 240 256 276 294 301 307 313 320 333 341 345 348 353 355 358 0 0 3 7 6 7 6
228 208 231 112 114 194 221 242 240 261 283 289 287 294 282 265 250 238 225 220 220 224 226 235 243 251 273 278 286 311 330 338 345 347 350 353 359 0 359 1 5 3 4 6
229 228 238 196 185 190 208 218 223 255 285 293 288 269 243 226 234 235 219 212 212 216 217 225 232 241 253 264 273 290 312 325 337 340 343 347 354 357 359 357 360 3 4 3
222 234 224 150 136 174 218 202 145 245 294 284 250 281 54 70 200 212 204 201 203 205 218 224 224 226 248 266 274 280 289 301 316 326 328 333 339 344 351 352 352 355 3 2
226 236 238 131 144 175 212 122 90 265 283 244 251 335 21 10 240 209 203 202 204 210 221 228 225 227 246 262 273 274 266 275 284 293 305 315 321 327 332 341 346 352 357 5
208 220 211 138 168 201 26 37 311 286 282 265 273 297 292 278 252 216 208 206 210 218 224 224 223 231 246 256 262 247 241 252 263 274 288 297 300 309 320 326 329 339 349 2
210 208 85 158 202 332 317 286 290 288 287 275 272 279 281 271 251 228 221 214 214 224 231 229 224 231 248 251 240 232 234 244 254 258 265 276 286 293 302 310 320 330 338 345
221 223 191 177 203 271 279 273 287 286 277 264 266 304 315 298 272 238 231 224 223 228 235 239 235 232 244 250 237 237 241 246 249 253 257 260 265 275 285 297 306 316 325 328
224 191 178 188 182 285 302 275 269 301 87 293 302 1 7 2 354 322 273 244 236 242 250 256 251 245 245 246 242 245 249 249 250 252 258 263 258 257 266 271 282 287 302 307
220 190 188 172 153 156 148 108 90 100 88 68 54 39 33 29 19 1 340 304 272 267 269 271 267 262 258 249 244 250 256 256 253 250 249 253 259 252 225 238 240 238 252 273
167 141 141 138 142 144 140 110 94 86 77 69 57 47 43 42 35 23 10 353 326 308 299 296 291 287 286 270 252 251 255 256 252 250 248 247 250 257 261 234 225 234 237 240
160 151 157 163 153 141 134 122 106 91 77 67 58 52 48 46 41 31 15 358 345 338 334 327 318 314 311 299 273 262 263 260 256 252 250 250 250 251 255 262 258 245 225 224
181 188 162 145 141 138 137 132 115 93 79 68 59 53 48 45 40 30 19 10 11 13 4 354 345 336 331 316 295 279 270 266 259 257 253 252 251 250 251 252 255 257 253 222
161 153 150 149 144 139 135 128 113 95 81 69 60 53 50 50 48 41 32 26 26 23 12 3 355 345 339 328 311 294 281 270 266 264 259 254 251 250 249 249 251 252 251 249
158 162 163 157 148 139 129 119 109 99 87 73 62 56 55 55 51 42 35 32 34 31 21 11 0 351 347 341 328 311 301 289 259 262 263 260 257 254 253 251 251 252 251 244
174 163 159 153 146 138 129 119 109 99 87 77 70 64 57 52 46 39 33 33 36 35 23 10 -0 352 354 352 341 327 317 309 297 281 273 267 264 261 260 258 256 255 256 243
147 142 139 137 136 133 127 120 112 101 91 83 76 69 62 54 46 41 39 38 30 22 11 3 352 357 359 359 348 334 330 323 316 306 295 284 275 271 266 263 262 260 258 254
139 137 135 133 133 130 126 122 116 106 94 86 82 75 65 54 44 41 43 46 33 12 0 359 359 3 359 356 348 342 339 334 328 322 316 307 297 289 282 275 270 267 264 259
142 141 139 137 134 131 129 126 120 111 100 89 82 75 66 56 46 40 37 35 24 7 0 0 6 6 359 350 344 352 349 344 338 333 329 323 316 309 302 294 287 279 273 268
147 146 145 143 141 137 133 129 124 118 111 101 92 84 73 58 48 44 43 25 8 359 357 4 5 2 354 348 355 356 354 351 347 342 337 332 326 321 316 312 305 298 291 283
151 150 149 150 148 143 140 138 136 132 126 118 107 91 72 51 32 24 22 11 359 352 351 359 353 350 345 350 356 356 356 354 351 346 342 337 332 327 323 319 315 311 306 300
153 153 152 151 151 153 154 153 151 149 148 146 140 131 91 32 27 15 352 344 342 336 342 347 343 343 340 348 351 351 352 352 350 347 343 340 337 332 328 325 322 318 313 308
158 158 159 162 165 166 164 162 164 167 174 179 186 198 225 273 305 321 323 326 329 324 331 337 338 335 337 343 344 343 342 343 341 338 339 340 338 335 332 330 327 322 319 315
166 170 173 180 178 174 174 178 183 184 187 194 205 219 236 256 272 283 295 308 315 317 321 327 331 331 337 338 335 332 332 332 332 333 333 333 333 334 332 332 329 327 323 320
176 177 180 185 187 190 192 195 200 204 207 215 229 240 253 266 275 286 293 301 309 314 318 321 324 326 327 327 326 326 327 327 327 327 326 326 326 326 327 327 326 325 324 322
Height
1532 1534 1535 1535 1538 1541 1541 1536 1538 1532 1531 1527 1525 1527 1528 1528 1529 1530 1531 1532 1532 1533 1533 1532 1531 1529 1528 1526 1523 1521 1519 1516 1514 1511 1508 1505 1502 1498 1495 1491 1488 1486 1483 1481
1533 1534 1535 1535 1534 1536 1537 1536 1534 1532 1529 1523 1525 1526 1526 1526 1527 1528 1528 1529 1530 1530 1530 1530 1529 1528 1527 1525 1523 1520 1518 1516 1513 1511 1508 1505 1502 1499 1495 1492 1489 1486 1484 1481
1529 1533 1534 1532 1524 1528 1530 1529 1529 1528 1524 1522 1523 1524 1524 1524 1524 1525 1526 1527 1527 1528 1528 1528 1528 1527 1525 1523 1522 1520 1518 1516 1513 1511 1508 1506 1503 1500 1496 1494 1491 1488 1485 1483
1529 1532 1539 1523 1521 1522 1525 1524 1523 1523 1522 1522 1523 1523 1522 1522 1522 1523 1523 1524 1525 1526 1526 1526 1526 1525 1523 1522 1521 1519 1517 1515 1513 1511 1508 1506 1503 1500 1498 1495 1492 1489 1487 1484
1528 1529 1525 1521 1520 1522 1523 1521 1520 1520 1520 1521 1521 1520 1519 1519 1520 1520 1521 1522 1523 1524 1524 1524 1524 1523 1523 1522 1520 1518 1517 1515 1513 1511 1509 1506 1504 1502 1499 1496 1494 1491 1488 1486
1530 1531 1528 1518 1518 1520 1522 1521 1519 1519 1519 1519 1520 1515 1516 1519 1518 1518 1519 1520 1521 1521 1522 1522 1522 1522 1521 1520 1519 1518 1516 1514 1513 1511 1509 1507 1505 1502 1500 1497 1495 1493 1490 1487
1527 1526 1517 1514 1519 1521 1524 1519 1518 1518 1518 1518 1518 1516 1518 1517 1517 1517 1518 1518 1519 1520 1520 1521 1520 1520 1520 1519 1518 1517 1515 1513 1512 1510 1508 1507 1504 1502 1500 1498 1496 1494 1491 1489
1522 1525 1520 1515 1517 1516 1515 1516 1517 1517 1517 1517 1517 1517 1516 1516 1516 1516 1516 1516 1517 1518 1518 1518 1518 1518 1518 1517 1516 1514 1513 1512 1510 1509 1508 1506 1504 1502 1501 1498 1497 1495 1493 1491
1511 1513 1513 1514 1514 1515 1515 1516 1516 1516 1516 1515 1515 1515 1514 1514 1514 1514 1514 1514 1515 1515 1516 1516 1515 1515 1515 1515 1514 1512 1511 1510 1509 1508 1506 1505 1504 1502 1501 1499 1497 1495 1493 1491
1509 1508 1512 1513 1513 1513 1513 1513 1513 1513 1513 1513 1513 1513 1513 1512 1512 1512 1512 1512 1512 1513 1513 1513 1513 1513 1512 1512 1511 1510 1509 1508 1507 1506 1505 1504 1502 1501 1500 1498 1497 1495 1493 1491
1504 1506 1510 1511 1511 1511 1511 1511 1511 1511 1511 1511 1511 1511 1511 1511 1510 1510 1510 1510 1510 1510 1510 1511 1510 1510 1509 1509 1508 1508 1507 1506 1505 1504 1503 1502 1500 1499 1498 1496 1495 1494 1492 1491
1497 1499 1502 1506 1508 1508 1509 1509 1510 1510 1510 1509 1509 1509 1509 1509 1508 1508 1508 1508 1507 1507 1507 1507 1507 1507 1506 1505 1505 1504 1504 1504 1503 1501 1500 1499 1498 1496 1495 1494 1492 1491 1490 1489
1498 1499 1501 1503 1505 1506 1507 1507 1508 1508 1508 1508 1508 1507 1507 1507 1507 1506 1506 1505 1505 1504 1504 1504 1504 1503 1503 1502 1501 1500 1500 1500 1499 1498 1497 1495 1494 1493 1492 1491 1489 1488 1487 1486
1494 1497 1500 1501 1502 1504 1505 1505 1506 1506 1506 1506 1506 1506 1506 1506 1505 1504 1504 1503 1503 1502 1501 1501 1500 1499 1499 1497 1497 1496 1496 1495 1494 1493 1492 1492 1491 1490 1488 1488 1487 1485 1484 1482
1492 1494 1496 1498 1500 1501 1503 1504 1505 1506 1505 1505 1505 1505 1504 1504 1503 1502 1502 1501 1500 1500 1498 1498 1496 1495 1494 1493 1492 1491 1491 1490 1489 1488 1487 1487 1486 1485 1484 1483 1482 1481 1480 1479
1488 1491 1493 1495 1498 1500 1502 1503 1504 1504 1504 1504 1504 1504 1503 1502 1502 1501 1500 1499 1498 1497 1496 1495 1493 1492 1491 1489 1488 1487 1486 1485 1484 1483 1482 1481 1480 1480 1479 1478 1477 1476 1475 1474
1483 1487 1490 1493 1495 1497 1499 1501 1502 1503 1503 1503 1503 1503 1502 1502 1501 1500 1499 1498 1497 1496 1494 1492 1491 1489 1487 1486 1484 1483 1481 1480 1479 1478 1477 1476 1475 1474 1473 1472 1471 1471 1470 1469
1480 1483 1486 1489 1492 1495 1497 1499 1500 1501 1502 1502 1502 1502 1501 1501 1500 1499 1498 1497 1496 1495 1492 1491 1488 1486 1485 1482 1480 1478 1477 1475 1474 1472 1471 1470 1469 1468 1468 1466 1465 1464 1463 1463
1477 1480 1484 1488 1491 1493 1495 1497 1499 1500 1500 1501 1501 1501 1500 1500 1499 1498 1498 1496 1494 1492 1491 1489 1487 1485 1482 1480 1477 1475 1473 1471 1469 1468 1466 1464 1463 1462 1461 1460 1459 1458 1457 1456
1476 1479 1483 1486 1489 1492 1494 1496 1497 1498 1499 1500 1500 1500 1500 1499 1498 1498 1497 1495 1494 1492 1490 1487 1485 1483 1480 1477 1474 1472 1470 1468 1465 1463 1461 1459 1458 1456 1455 1454 1452 1451 1450 1449
1475 1479 1482 1485 1488 1491 1493 1495 1496 1497 1498 1499 1499 1499 1499 1499 1498 1497 1496 1495 1493 1491 1489 1486 1484 1481 1478 1475 1472 1470 1467 1465 1462 1460 1457 1455 1453 1451 1449 1447 1446 1444 1443 1441
1476 1479 1482 1485 1488 1490 1492 1494 1495 1496 1497 1498 1498 1498 1498 1498 1498 1497 1496 1494 1493 1490 1488 1486 1483 1480 1477 1474 1471 1468 1465 1463 1460 1457 1454 1452 1449 1446 1444 1442 1439 1437 1435 1434
1476 1479 1482 1485 1488 1490 1491 1493 1494 1495 1496 1497 1497 1497 1497 1497 1497 1496 1495 1494 1492 1489 1487 1485 1482 1479 1475 1473 1470 1467 1464 1461 1458 1455 1452 1449 1446 1443 1440 1437 1434 1431 1429 1426
1476 1479 1482 1484 1487 1489 1491 1492 1493 1494 1495 1495 1496 1496 1496 1496 1496 1495 1494 1492 1490 1488 1486 1483 1480 1477 1474 1472 1469 1466 1463 1459 1456 1452 1449 1446 1443 1439 1436 1432 1429 1426 1423 1420
1475 1478 1481 1483 1485 1487 1489 1491 1492 1493 1493 1494 1495 1495 1495 1494 1494 1493 1492 1490 1488 1486 1484 1482 1478 1475 1473 1470 1467 1464 1461 1458 1454 1451 1447 1443 1439 1436 1432 1428 1424 1421 1417 1413
1475 1477 1480 1482 1484 1486 1487 1489 1490 1491 1492 1493 1493 1493 1493 1492 1491 1490 1489 1488 1486 1484 1482 1479 1476 1473 1471 1468 1465 1462 1459 1455 1452 1448 1445 1441 1437 1433 1428 1424 1420 1416 1412 1408
1473 1476 1478 1480 1481 1483 1485 1486 1488 1489 1490 1490 1491 1491 1490 1490 1489 1488 1486 1485 1483 1481 1479 1476 1474 1471 1468 1465 1462 1459 1456 1453 1449 1445 1442 1438 1434 1429 1425 1420 1416 1411 1407 1402